CES2022 YSSY-ZBAD

Flight info

Callsign CES2022
Flight time N/A
Altitude 36000
Route RIC H530 SURVO R340 AMN A461 ZAM A583 BIGEX A461 BEKOL/K0885S1095 A461 BUBDA W56 LEBUN W57 BEKDO W157 AVBOX AVBOX9M
Aircraft A339/H-SADE1E2E3GHIJ3J5M1P2RWXY/LB2D1

Departure

Time N/A
Airport Sydney Kingsford Smith International Airport (YSSY)

Arrival

Time 2026-04-12 09:06
Airport Beijing Daxing International Airport (ZBAD)
Time Latitude Longitude Altitude Speed Heading
2026-04-12 08:29 36.93701 115.07754 35887 ft 506 kts 20°
2026-04-12 08:29 37.00056 115.11484 35887 ft 506 kts 20°
2026-04-12 08:30 37.06440 115.15238 35883 ft 506 kts 20°
2026-04-12 08:30 37.12805 115.18987 35889 ft 505 kts 20°
2026-04-12 08:31 37.19160 115.22737 35884 ft 505 kts 20°
2026-04-12 08:31 37.25520 115.26498 35889 ft 504 kts 20°
2026-04-12 08:32 37.31867 115.30258 35893 ft 504 kts 20°
2026-04-12 08:32 37.38208 115.34022 35892 ft 504 kts 20°
2026-04-12 08:33 37.44547 115.37791 35895 ft 503 kts 20°
2026-04-12 08:33 37.50873 115.41560 35894 ft 503 kts 20°
2026-04-12 08:34 37.57192 115.45331 35889 ft 502 kts 20°
2026-04-12 08:34 37.63509 115.49108 35635 ft 501 kts 20°
2026-04-12 08:35 37.66651 115.50989 35401 ft 499 kts 20°
2026-04-12 08:35 37.69751 115.52846 35162 ft 498 kts 20°
2026-04-12 08:35 37.72872 115.54718 34926 ft 497 kts 21°
2026-04-12 08:35 37.75986 115.56612 34685 ft 497 kts 23°
2026-04-12 08:36 37.78985 115.58930 34456 ft 501 kts 32°
2026-04-12 08:36 37.81667 115.61679 34225 ft 504 kts 40°
2026-04-12 08:36 37.84091 115.64885 34003 ft 505 kts 46°
2026-04-12 08:36 37.86412 115.68202 33754 ft 504 kts 45°
2026-04-12 08:37 37.88758 115.71518 33485 ft 505 kts 45°
2026-04-12 08:37 37.91127 115.74859 33219 ft 505 kts 45°
2026-04-12 08:37 37.93481 115.78181 32954 ft 505 kts 45°
2026-04-12 08:37 37.95828 115.81501 32603 ft 505 kts 45°
2026-04-12 08:38 37.98175 115.84824 31831 ft 507 kts 45°
2026-04-12 08:38 38.00527 115.88160 30846 ft 509 kts 45°
2026-04-12 08:38 38.02873 115.91492 30211 ft 503 kts 45°
2026-04-12 08:38 38.05187 115.94786 29669 ft 495 kts 45°
2026-04-12 08:39 38.06697 115.96937 29296 ft 490 kts 45°
2026-04-12 08:39 38.08949 116.00144 28737 ft 482 kts 45°
2026-04-12 08:39 38.11165 116.03304 28180 ft 475 kts 46°
2026-04-12 08:39 38.13348 116.06419 27641 ft 469 kts 46°
2026-04-12 08:40 38.15503 116.09496 27098 ft 463 kts 46°
2026-04-12 08:40 38.17626 116.12532 26575 ft 457 kts 46°
2026-04-12 08:40 38.19726 116.15536 26040 ft 451 kts 46°
2026-04-12 08:40 38.21799 116.18505 25535 ft 446 kts 46°
2026-04-12 08:41 38.23879 116.21401 24996 ft 439 kts 41°
2026-04-12 08:41 38.26257 116.23765 24455 ft 430 kts 28°
2026-04-12 08:41 38.28906 116.25407 24012 ft 418 kts 16°
2026-04-12 08:41 38.31670 116.26421 23514 ft 410 kts 11°
2026-04-12 08:42 38.34413 116.27329 23039 ft 403 kts 11°
2026-04-12 08:42 38.37165 116.28256 22582 ft 420 kts 11°
2026-04-12 08:42 38.40057 116.29235 22082 ft 436 kts 12°
2026-04-12 08:42 38.42999 116.30244 21581 ft 439 kts 12°
2026-04-12 08:43 38.45937 116.31261 21082 ft 435 kts 12°
2026-04-12 08:43 38.48806 116.32255 20592 ft 428 kts 12°
2026-04-12 08:43 38.51647 116.33240 20104 ft 418 kts 12°
2026-04-12 08:43 38.54418 116.34201 19625 ft 407 kts 12°
2026-04-12 08:44 38.57120 116.35136 19151 ft 397 kts 12°
2026-04-12 08:44 38.59758 116.36050 18705 ft 388 kts 12°
2026-04-12 08:44 38.62368 116.36953 18249 ft 379 kts 12°
2026-04-12 08:44 38.64874 116.37867 17772 ft 371 kts 16°
2026-04-12 08:45 38.67242 116.39085 17354 ft 369 kts 21°
2026-04-12 08:45 38.69710 116.40423 16896 ft 397 kts 20°
2026-04-12 08:45 38.72294 116.41806 16402 ft 406 kts 21°
2026-04-12 08:45 38.74903 116.43202 15896 ft 405 kts 21°
2026-04-12 08:46 38.77483 116.44586 15400 ft 399 kts 21°
2026-04-12 08:46 38.80007 116.45942 14906 ft 387 kts 21°
2026-04-12 08:46 38.84839 116.48542 13956 ft 366 kts 21°
2026-04-12 08:47 38.87161 116.49790 13491 ft 357 kts 21°
2026-04-12 08:47 38.89417 116.51005 13036 ft 347 kts 21°
2026-04-12 08:47 38.91607 116.52186 12602 ft 337 kts 21°
2026-04-12 08:47 38.93830 116.53380 12170 ft 361 kts 21°
2026-04-12 08:48 38.96194 116.54647 11711 ft 371 kts 21°
2026-04-12 08:48 38.98578 116.55931 11251 ft 370 kts 21°
2026-04-12 08:48 39.00928 116.57201 10834 ft 360 kts 22°
2026-04-12 08:48 39.03182 116.58422 10585 ft 343 kts 22°
2026-04-12 08:49 39.05322 116.59584 10402 ft 324 kts 22°
2026-04-12 08:49 39.07389 116.60482 10223 ft 305 kts 11°
2026-04-12 08:49 39.09446 116.60714 9856 ft 293 kts 357°
2026-04-12 08:49 39.11445 116.60403 9496 ft 282 kts 351°
2026-04-12 08:50 39.13370 116.60058 9372 ft 283 kts 352°
2026-04-12 08:50 39.15362 116.59730 9238 ft 284 kts 353°
2026-04-12 08:50 39.17320 116.59426 9106 ft 282 kts 353°
2026-04-12 08:50 39.19255 116.59130 8976 ft 282 kts 353°
2026-04-12 08:51 39.21212 116.58829 8694 ft 281 kts 353°
2026-04-12 08:51 39.23134 116.58532 8393 ft 274 kts 353°
2026-04-12 08:51 39.24991 116.58246 8089 ft 262 kts 353°
2026-04-12 08:51 39.26758 116.57973 7798 ft 250 kts 353°
2026-04-12 08:52 39.28485 116.57706 7526 ft 261 kts 354°
2026-04-12 08:52 39.30402 116.57413 7216 ft 288 kts 354°
2026-04-12 08:52 39.32395 116.57104 7160 ft 285 kts 354°
2026-04-12 08:52 39.34332 116.56800 6982 ft 277 kts 354°
2026-04-12 08:53 39.36227 116.56505 6548 ft 272 kts 354°
2026-04-12 08:53 39.38065 116.56219 6400 ft 267 kts 354°
2026-04-12 08:53 39.39925 116.55928 6245 ft 269 kts 354°
2026-04-12 08:53 39.41774 116.55640 6084 ft 266 kts 354°
2026-04-12 08:54 39.43638 116.55348 5925 ft 266 kts 354°
2026-04-12 08:54 39.45466 116.55062 5773 ft 265 kts 354°
2026-04-12 08:54 39.47294 116.54776 5610 ft 263 kts 354°
2026-04-12 08:54 39.49113 116.54492 5463 ft 264 kts 354°
2026-04-12 08:55 39.50935 116.54209 5295 ft 262 kts 354°
2026-04-12 08:55 39.52743 116.53927 5155 ft 262 kts 354°
2026-04-12 08:55 39.54547 116.53645 4996 ft 260 kts 355°
2026-04-12 08:55 39.56339 116.53364 4902 ft 259 kts 355°
2026-04-12 08:56 39.58131 116.53085 4850 ft 259 kts 355°
2026-04-12 08:56 39.59920 116.52808 4800 ft 258 kts 355°
2026-04-12 08:56 39.61705 116.52528 4752 ft 258 kts 355°
2026-04-12 08:56 39.63488 116.52244 4696 ft 258 kts 355°
2026-04-12 08:57 39.65268 116.51960 4653 ft 258 kts 355°
2026-04-12 08:57 39.67052 116.51686 4596 ft 259 kts 355°
2026-04-12 08:57 39.68841 116.51401 4544 ft 258 kts 355°
2026-04-12 08:57 39.70622 116.51118 4503 ft 258 kts 355°
2026-04-12 08:58 39.72402 116.50840 4447 ft 257 kts 354°
2026-04-12 08:58 39.74181 116.50558 4399 ft 258 kts 355°
2026-04-12 08:58 39.75981 116.50279 4356 ft 254 kts 355°
2026-04-12 08:58 39.77677 116.49991 4256 ft 243 kts 351°
2026-04-12 08:59 39.79169 116.49101 4049 ft 236 kts 323°
2026-04-12 08:59 39.80120 116.47424 3948 ft 234 kts 294°
2026-04-12 08:59 39.80325 116.45286 3957 ft 243 kts 266°
2026-04-12 08:59 39.80032 116.43119 3947 ft 244 kts 259°
2026-04-12 09:00 39.79663 116.40968 3948 ft 243 kts 260°
2026-04-12 09:00 39.79341 116.38814 3949 ft 243 kts 262°
2026-04-12 09:00 39.78861 116.36702 3906 ft 248 kts 240°
2026-04-12 09:00 39.77602 116.35217 3915 ft 247 kts 204°
2026-04-12 09:01 39.75895 116.34857 3883 ft 246 kts 175°
2026-04-12 09:01 39.74234 116.35122 3813 ft 234 kts 167°
2026-04-12 09:01 39.72658 116.35425 3664 ft 225 kts 171°
2026-04-12 09:01 39.71122 116.35657 3483 ft 221 kts 171°
2026-04-12 09:02 39.69559 116.35910 3389 ft 228 kts 171°
2026-04-12 09:02 39.68013 116.36150 3137 ft 225 kts 171°
2026-04-12 09:02 39.66468 116.36393 2870 ft 223 kts 170°
2026-04-12 09:02 39.64944 116.36639 2599 ft 218 kts 171°
2026-04-12 09:03 39.63454 116.36878 2327 ft 211 kts 170°
2026-04-12 09:03 39.62054 116.37095 2054 ft 195 kts 170°
2026-04-12 09:03 39.60778 116.37293 1819 ft 175 kts 170°
2026-04-12 09:03 39.59627 116.37478 1596 ft 158 kts 169°
2026-04-12 09:04 39.58578 116.37644 1387 ft 148 kts 169°
2026-04-12 09:04 39.57536 116.37816 1198 ft 149 kts 169°
2026-04-12 09:04 39.56528 116.37969 1022 ft 149 kts 169°
2026-04-12 09:04 39.55512 116.38130 826 ft 145 kts 169°
2026-04-12 09:05 39.54496 116.38297 657 ft 150 kts 172°
2026-04-12 09:05 39.53464 116.38457 461 ft 144 kts 171°
2026-04-12 09:05 39.52463 116.38618 254 ft 149 kts 172°
2026-04-12 09:05 39.51463 116.38774 104 ft 140 kts 172°
2026-04-12 09:06 39.50632 116.38908 98 ft 96 kts 173°
2026-04-12 09:06 39.50126 116.38987 93 ft 51 kts 173°
2026-04-12 09:06 39.49945 116.39016 98 ft 16 kts 173°
2026-04-12 09:06 39.49795 116.39039 101 ft 25 kts 172°
2026-04-12 09:07 39.49649 116.39139 102 ft 22 kts 147°
2026-04-12 09:07 39.49595 116.39185 102 ft 0 kts 145°
2026-04-12 09:10 39.49568 116.39210 103 ft 18 kts 146°
2026-04-12 09:10 39.49439 116.39305 100 ft 20 kts 159°
2026-04-12 09:10 39.49310 116.39344 100 ft 21 kts 155°
2026-04-12 09:10 39.49192 116.39445 97 ft 19 kts 145°
2026-04-12 09:11 39.49154 116.39585 101 ft 15 kts 70°
2026-04-12 09:11 39.49190 116.39664 100 ft 7 kts 95°
2026-04-12 09:11 39.49180 116.39766 99 ft 22 kts 96°
2026-04-12 09:11 39.49184 116.39946 100 ft 17 kts 83°
2026-04-12 09:12 39.49198 116.40095 99 ft 18 kts 83°
2026-04-12 09:12 39.49262 116.40234 98 ft 15 kts 15°
2026-04-12 09:12 39.49345 116.40218 97 ft 12 kts 354°
2026-04-12 09:12 39.49497 116.40193 93 ft 24 kts 354°
2026-04-12 09:13 39.49647 116.40172 97 ft 20 kts 354°
2026-04-12 09:13 39.49845 116.40137 96 ft 31 kts 352°
2026-04-12 09:13 39.50035 116.40110 100 ft 24 kts 359°
2026-04-12 09:13 39.50180 116.40089 101 ft 18 kts 355°
2026-04-12 09:14 39.50331 116.40066 102 ft 34 kts 352°
2026-04-12 09:14 39.50561 116.40037 98 ft 29 kts 354°
2026-04-12 09:14 39.50640 116.40104 99 ft 10 kts 83°
2026-04-12 09:14 39.50640 116.40185 95 ft 9 kts 82°
2026-04-12 09:15 39.50657 116.40247 95 ft 7 kts 64°
2026-04-12 09:15 39.50678 116.40297 94 ft 6 kts 61°
2026-04-12 09:15 39.50696 116.40334 94 ft 4 kts 59°
2026-04-12 09:15 39.50699 116.40364 93 ft 5 kts 82°
2026-04-12 09:16 39.50696 116.40381 94 ft 0 kts 102°